Bluffton, MN

7:15 AM CST on December 03, 2016 (GMT -0600)
Wadena Municipal

Weather History for KADC - September, 2013

Change the Weather History Date:

Sunday, September 15, 2013

  Actual Average Record
Temperature  
Mean Temperature 50 °F -  
Max Temperature 60 °F 65 °F 87 °F (1939)
Min Temperature 39 °F 44 °F 21 °F (2011)
Degree Days  
Heating Degree Days 16    
Moisture  
Dew Point 49 °F    
Average Humidity 85    
Maximum Humidity 100    
Minimum Humidity 55    
Precipitation  
Precipitation 0.01 in - - ()
Sea Level Pressure  
Sea Level Pressure 30.16 in    
Wind  
Wind Speed 5 mph (NNE)    
Max Wind Speed 12 mph    
Max Gust Speed 18 mph    
Visibility 10 miles    
Events      
Averages and records for this station are not official NWS values.
T = Trace of Precipitation, MM = Missing Value Source: NWS Daily Summary

Daily Weather History Graph

Daily Weather History Graph

Search for Another Location

Airport or City:

Trip Planner

Search our weather history database for the weather conditions in past years. The results will help you decide how hot, cold, wet, or windy it might be!

Date:

Astronomy

Sep. 15, 2013 Rise Set
Actual Time 6:59 AM CDT 7:31 PM CDT
Civil Twilight 6:28 AM CDT 8:02 PM CDT
Nautical Twilight 5:52 AM CDT 8:37 PM CDT
Astronomical Twilight 5:15 AM CDT 9:15 PM CDT
Moon 5:10 PM CDT (9/15) 2:26 AM CDT (9/15)
Length of Visible Light 13h 33m
Length of Day
12h 32m
Waxing Gibbous, 82% of the Moon is Illuminated
Sep 15
Waxing Gibbous
Sep 19
Full
Sep 26
Last Quarter
Oct 4
New
Oct 11
First Quarter

Hourly Weather History & Observations

Time (CDT) Temp. Windchill Dew Point Humidity Pressure Visibility Wind Dir Wind Speed Gust Speed Precip Events Conditions
12:15 AM 53.6 °F - 51.8 °F 94% 29.94 in 10.0 mi East 5.8 mph - N/A   Overcast
12:34 AM 53.6 °F - 51.8 °F 94% 29.95 in 10.0 mi NNE 4.6 mph - N/A   Overcast
12:53 AM 53.6 °F - 51.8 °F 94% 29.95 in 10.0 mi Calm Calm - N/A   Overcast
1:15 AM 53.6 °F - 53.6 °F 100% 29.95 in 10.0 mi NE 4.6 mph - N/A   Overcast
1:35 AM 53.6 °F - 53.6 °F 100% 29.95 in 10.0 mi NE 3.5 mph - N/A   Overcast
1:53 AM 53.6 °F - 53.6 °F 100% 29.95 in 10.0 mi Calm Calm - N/A   Overcast
2:15 AM 53.6 °F - 53.6 °F 100% 29.95 in 10.0 mi NNE 4.6 mph - N/A   Overcast
2:35 AM 53.6 °F - 53.6 °F 100% 29.96 in 10.0 mi North 4.6 mph - N/A   Overcast
2:52 AM 53.6 °F - 53.6 °F 100% 29.96 in 10.0 mi North 4.6 mph - N/A   Overcast
3:15 AM 53.6 °F - 51.8 °F 94% 29.97 in 10.0 mi North 4.6 mph - N/A   Overcast
3:35 AM 53.6 °F - 53.6 °F 100% 29.98 in 10.0 mi North 4.6 mph - N/A   Overcast
3:52 AM 53.6 °F - 53.6 °F 100% 29.98 in 10.0 mi North 3.5 mph - N/A   Overcast
4:15 AM 53.6 °F - 53.6 °F 100% 29.98 in 10.0 mi Calm Calm - N/A   Overcast
4:35 AM 53.6 °F - 53.6 °F 100% 29.98 in 10.0 mi Calm Calm - N/A   Overcast
4:53 AM 53.6 °F - 53.6 °F 100% 29.99 in 10.0 mi Calm Calm - N/A   Overcast
5:15 AM 53.6 °F - 53.6 °F 100% 30.00 in 10.0 mi NNW 3.5 mph - N/A   Overcast
5:35 AM 53.6 °F - 53.6 °F 100% 30.01 in 10.0 mi NNW 4.6 mph - N/A   Overcast
5:53 AM 53.6 °F - 53.6 °F 100% 30.02 in 10.0 mi North 6.9 mph - N/A   Overcast
6:15 AM 53.6 °F - 53.6 °F 100% 30.03 in 10.0 mi North 5.8 mph - N/A   Overcast
6:35 AM 53.6 °F - 53.6 °F 100% 30.03 in 7.0 mi North 5.8 mph - N/A   Overcast
6:53 AM 53.6 °F - 53.6 °F 100% 30.04 in 10.0 mi North 6.9 mph - N/A   Overcast
7:15 AM 55.4 °F - 53.6 °F 94% 30.05 in 10.0 mi NNE 10.4 mph - N/A   Overcast
7:35 AM 55.4 °F - 53.6 °F 94% 30.06 in 10.0 mi NNE 11.5 mph - N/A   Overcast
7:53 AM 55.4 °F - 53.6 °F 94% 30.07 in 10.0 mi NNE 11.5 mph 16.1 mph N/A   Overcast
8:15 AM 55.4 °F - 53.6 °F 94% 30.09 in 10.0 mi NNE 11.5 mph 16.1 mph N/A   Overcast
8:34 AM 55.4 °F - 53.6 °F 94% 30.09 in 10.0 mi NNE 6.9 mph 10.4 mph N/A   Overcast
8:53 AM 55.4 °F - 51.8 °F 88% 30.10 in 10.0 mi NE 8.1 mph 16.1 mph N/A   Overcast
9:15 AM 55.4 °F - 51.8 °F 88% 30.12 in 10.0 mi NNE 11.5 mph 17.3 mph N/A   Overcast
9:35 AM 55.4 °F - 53.6 °F 94% 30.13 in 10.0 mi North 10.4 mph - N/A   Overcast
9:53 AM 55.4 °F - 51.8 °F 88% 30.14 in 10.0 mi NNE 11.5 mph - N/A   Overcast
10:15 AM 55.4 °F - 51.8 °F 88% 30.15 in 10.0 mi NE 10.4 mph - N/A   Overcast
10:35 AM 55.4 °F - 51.8 °F 88% 30.17 in 10.0 mi NE 10.4 mph - N/A   Overcast
10:52 AM 53.6 °F - 51.8 °F 94% 30.18 in 10.0 mi NE 9.2 mph - N/A   Overcast
11:14 AM 53.6 °F - 50.0 °F 88% 30.19 in 10.0 mi NNE 11.5 mph 18.4 mph N/A   Overcast
11:35 AM 53.6 °F - 50.0 °F 88% 30.20 in 10.0 mi NNE 11.5 mph - N/A   Overcast
11:53 AM 53.6 °F - 48.2 °F 82% 30.21 in 10.0 mi NNE 8.1 mph - N/A   Overcast
12:15 PM 53.6 °F - 48.2 °F 82% 30.22 in 10.0 mi North 10.4 mph - N/A   Overcast
12:35 PM 53.6 °F - 48.2 °F 82% 30.22 in 10.0 mi North 10.4 mph 16.1 mph N/A   Overcast
12:52 PM 53.6 °F - 48.2 °F 82% 30.23 in 10.0 mi NNE 6.9 mph 16.1 mph N/A   Overcast
1:15 PM 53.6 °F - 48.2 °F 82% 30.23 in 10.0 mi NNE 10.4 mph - N/A   Overcast
1:34 PM 53.6 °F - 48.2 °F 82% 30.24 in 10.0 mi NE 8.1 mph - N/A   Overcast
1:53 PM 55.4 °F - 46.4 °F 72% 30.24 in 10.0 mi NNE 8.1 mph - N/A   Overcast
2:15 PM 55.4 °F - 46.4 °F 72% 30.25 in 10.0 mi NNE 9.2 mph - N/A   Overcast
2:35 PM 57.2 °F - 46.4 °F 67% 30.25 in 10.0 mi North 9.2 mph - N/A   Overcast
2:53 PM 57.2 °F - 46.4 °F 67% 30.25 in 10.0 mi NE 10.4 mph - N/A   Mostly Cloudy
3:15 PM 59.0 °F - 46.4 °F 63% 30.25 in 10.0 mi NE 9.2 mph - N/A   Scattered Clouds
3:35 PM 59.0 °F - 46.4 °F 63% 30.25 in 10.0 mi NNE 4.6 mph - N/A   Scattered Clouds
3:53 PM 60.8 °F - 44.6 °F 55% 30.26 in 10.0 mi North 8.1 mph - N/A   Scattered Clouds
4:15 PM 60.8 °F - 46.4 °F 59% 30.26 in 10.0 mi Calm Calm - N/A   Clear
4:35 PM 60.8 °F - 44.6 °F 55% 30.26 in 10.0 mi North 9.2 mph - N/A   Clear
4:52 PM 60.8 °F - 44.6 °F 55% 30.26 in 10.0 mi North 4.6 mph - N/A   Clear
5:14 PM 60.8 °F - 46.4 °F 59% 30.26 in 10.0 mi NNE 8.1 mph - N/A   Clear
5:35 PM 60.8 °F - 46.4 °F 59% 30.26 in 10.0 mi ENE 4.6 mph - N/A   Clear
5:53 PM 60.8 °F - 44.6 °F 55% 30.26 in 10.0 mi NNE 9.2 mph - N/A   Clear
6:15 PM 59.0 °F - 44.6 °F 59% 30.27 in 10.0 mi NNE 5.8 mph - N/A   Clear
6:35 PM 57.2 °F - 46.4 °F 67% 30.27 in 10.0 mi NE 4.6 mph - N/A   Clear
6:52 PM 57.2 °F - 46.4 °F 67% 30.27 in 10.0 mi ENE 4.6 mph - N/A   Clear
7:14 PM 55.4 °F - 46.4 °F 72% 30.28 in 10.0 mi ENE 3.5 mph - N/A   Clear
7:34 PM 53.6 °F - 44.6 °F 72% 30.28 in 10.0 mi East 3.5 mph - N/A   Clear
7:53 PM 51.8 °F - 44.6 °F 76% 30.29 in 10.0 mi ENE 3.5 mph - N/A   Clear
8:15 PM 50.0 °F - 44.6 °F 82% 30.29 in 10.0 mi East 3.5 mph - N/A   Clear
8:34 PM 48.2 °F - 42.8 °F 82% 30.30 in 10.0 mi Calm Calm - N/A   Clear
8:53 PM 44.6 °F - 42.8 °F 93% 30.31 in 10.0 mi Calm Calm - N/A   Clear
9:15 PM 44.6 °F 43.1 °F 42.8 °F 93% 30.31 in 10.0 mi East 3.5 mph - 0.01 in   Clear
9:35 PM 44.6 °F - 41.0 °F 87% 30.32 in 10.0 mi Calm Calm - 0.01 in   Clear
9:53 PM 42.8 °F - 41.0 °F 93% 30.32 in 10.0 mi Calm Calm - 0.01 in   Clear
10:15 PM 42.8 °F - 41.0 °F 93% 30.32 in 10.0 mi Calm Calm - N/A   Clear
10:35 PM 42.8 °F - 39.2 °F 87% 30.32 in 10.0 mi Calm Calm - N/A   Clear
10:53 PM 41.0 °F - 39.2 °F 93% 30.33 in 10.0 mi Calm Calm - N/A   Clear
11:15 PM 41.0 °F - 39.2 °F 93% 30.33 in 10.0 mi Calm Calm - N/A   Clear
11:35 PM 39.2 °F - 39.2 °F 100% 30.33 in 10.0 mi Calm Calm - N/A   Clear
11:53 PM 39.2 °F - 39.2 °F 100% 30.34 in 3.0 mi Calm Calm - N/A   Clear